This is the latest recevied weather packets stored in our database for station/object VE9LJW. If no packets are shown the sender has not sent any weather packets the latest 1 day(s).
| Time | Temp. | Humidity | Pressure | Rain* | Wind** | Luminosity | Snow |
|---|---|---|---|---|---|---|---|
| 1836274809 | 11.11° C | 74% | 1016 hPa | 0 mm | 0 m/s | 0 W/m² | - |
| 1836274506 | 11.67° C | 73% | 1015.9 hPa | 0 mm | 0.89 m/s, 127° | 0 W/m² | - |
| 1836274360 | 11.11° C | 73% | 1016.1 hPa | 0 mm | 0.45 m/s, 180° | 0 W/m² | - |
| 1836274204 | 11.67° C | 71% | 1015.8 hPa | 0 mm | 0 m/s | 0 W/m² | - |
| 1836273898 | 12.22° C | 70% | 1015.6 hPa | 0 mm | 0.89 m/s, 99° | 0 W/m² | - |
| 1778041204 | 13.33° C | 89% | 1006.6 hPa | 0 mm | 2.24 m/s, 205° | 0 W/m² | - |
| 1778040902 | 13.33° C | 89% | 1006.3 hPa | 0 mm | 3.58 m/s, 208° | 0 W/m² | - |
| 1778040599 | 13.33° C | 89% | 1006.5 hPa | 0 mm | 2.24 m/s, 214° | 0 W/m² | - |
| 1778040296 | 13.33° C | 89% | 1006.5 hPa | 0 mm | 1.79 m/s, 211° | 0 W/m² | - |
| 1778039992 | 13.33° C | 89% | 1006.6 hPa | 0 mm | 0.89 m/s, 201° | 0 W/m² | - |
| 1778039690 | 13.33° C | 89% | 1006.3 hPa | 0 mm | 1.34 m/s, 240° | 0 W/m² | - |
| 1778039386 | 13.33° C | 89% | 1006.5 hPa | 0 mm | 2.24 m/s, 203° | 0 W/m² | - |
| 1778039083 | 13.89° C | 88% | 1006.3 hPa | 0 mm | 4.02 m/s, 202° | 0 W/m² | - |
| 1778038780 | 13.89° C | 88% | 1006.1 hPa | 0 mm | 2.24 m/s, 251° | 0 W/m² | - |
| 1778038478 | 13.89° C | 88% | 1005.4 hPa | 0 mm | 2.24 m/s, 211° | 0 W/m² | - |
| 1778038174 | 13.89° C | 88% | 1005.5 hPa | 0 mm | 0.89 m/s, 177° | 0 W/m² | - |
| 1778037872 | 13.89° C | 88% | 1005.1 hPa | 0 mm | 3.58 m/s, 201° | 0 W/m² | - |
| 1778037568 | 13.89° C | 88% | 1005.2 hPa | 0 mm | 1.79 m/s, 189° | 0 W/m² | - |
| 1778037265 | 13.89° C | 88% | 1005.7 hPa | 0 mm | 1.79 m/s, 198° | 0 W/m² | - |
| 1778036963 | 13.89° C | 88% | 1005.1 hPa | 0 mm | 2.24 m/s, 205° | 0 W/m² | - |
| 1778036661 | 13.89° C | 88% | 1005.2 hPa | 0 mm | 2.68 m/s, 209° | 0 W/m² | - |
| 1778036357 | 13.89° C | 88% | 1005.4 hPa | 0 mm | 2.24 m/s, 203° | 0 W/m² | - |
| 1778036054 | 13.89° C | 88% | 1005.7 hPa | 0 mm | 4.92 m/s, 221° | 0 W/m² | - |
| 1778035751 | 13.89° C | 87% | 1005.4 hPa | 0 mm | 1.79 m/s, 9° | 0 W/m² | - |
| 1778035448 | 13.89° C | 87% | 1005.3 hPa | 0 mm | 2.24 m/s, 213° | 0 W/m² | - |
* Rain latest hour (hover to see other rain measurements)
** Current wind speed in m/s (hover to see current wind gust speed)